Карточка аэропорта UIAA

Внимание!
Информация на этой странице в стадии наполнения.
Если вы не увидели какой-то информации, или заметили неточность - пожалуйста сообщите нам!
Спасибо!
Команда RU-STAFF
Название аэропортаКадала
Название аэропорта (англ.)Kadala
Превышение2271 ft. (692.2 m.)
Координаты52°1.5779999999999', 113°18.3'
Высота перехода1800m
Эшелон переходаFL100
Коды ответчика3350-3377
Зона ОрВДИркутск РПИ (UIII)
Данные METARUIAA 122100Z VRB01MPS 7000 FEW050CB 16/15 Q1007 R29/CLRD70 NOSIG RMK QFE697/0929
Проноз погоды (TAF)UIAA 122000Z 1221/1321 02003MPS 6000 BKN030CB TEMPO 1221/1301 0500 FG VV001 TEMPO 1303/1312 VRB08MPS 3100 -TSRA FU
NOTAMshow/hide NOTAM
AWOS   TABLE

Информация о ВПП


Диспетчерские позиции

Позывной Наименование органа УВД Частота
UIAA_TWRЧита-Вышка118.2
UIAA_APPЧита-Подход122.0



Спутниковое изображение